Find Starlink 38352

NORAD ID: 100542 Int'l Des: 2026-200 Owner: SPXS Country: US Constellation: starlink operational

現在のビュー

3D地球を読み込み中...

About Starlink 38352

Starlink 38352 (NORAD 100542) is a starlink constellation satellite launched Sep 2, 2026 by SPXS of US. with a mass of 575.00 kg.

次回通過

Passes for default location (London). Set your location on the main map for personalized predictions.

高度履歴

Loading altitude history...

軌道要素

1 A0542U 26200J 26263.96753448 .00187088 00000-0 89022-3 0 9992
2 A0542 69.9992 133.7850 0004330 278.7576 81.3135 15.82205323 2965
Epoch: Sep 20, 2026 • Age: 9 hours

現在のステータス

高度 333.6 km
遠地点 / 近地点 N/A
速度 7.71 km/s
衛星直下点 -32.72°S, 3.61°W
打ち上げ日 Sep 2, 2026
運用期間 18 days
タイプ internet

技術仕様

分類 Payload
質量 575.00 kg
乾燥質量 530.00 kg
長さ 0.30 m
スパン 29.00 m
形状 ? Box + pan
製造者 SPXS
バスタイプ Starlink V2MO
フェーズステータス In Orbit
所有者/国 SPXS/US

Most Searched